Tracking 29892 objects as of 21-Nov-2024
HD Live streaming from Space Station
objects crossing your sky now

ZY-1 02D

Track ZY-1 02D now!
10-day predictions


NORAD ID: 44528
Int'l Code: 2019-059A
Perigee: 779.0 km
Apogee: 782.4 km
Inclination: 98.4 °
Period: 100.3 minutes
Semi major axis: 7151 km
RCS: Unknown
Launch date: September 12, 2019
Source: People's Republic of China (PRC)
Launch site: Taiyaun Space Center, China (TSC)
Your satellite tracking list
Your tracking list is empty




NASA's NSSDC Master Catalog

Two Line Element Set (TLE):
1 44528U 19059A   24326.16213217  .00000411  00000-0  15801-3 0  9991
2 44528  98.3947  34.5197 0002364  63.4181 296.7247 14.35447150272138
Source of the keplerian elements: AFSPC